星链-30953 (STARLINK-30953 )

导读 | 星芒AI

STARLINK-30953 是 SpaceX 星链计划中的一颗低轨通信卫星,属于第 12 批组网发射的星链卫星之一。该卫星于 2022 年 3 月 30 日由猎鹰 9 号火箭从佛罗里达州肯尼迪航天中心发射升空。它运行在约 550 公里的近地轨道,旨在为全球用户提供高速互联网服务。星链项目计划部署数万颗卫星,构建覆盖全球的宽带网络,尤其服务于偏远地区。STARLINK-30953 采用最新一代星链卫星技术,具备自主变轨和激光通信能力,有助于提升网络稳定性和减少空间碎片风险。

基本信息
目录编号:
58491
目录名称:
STARLINK-30953
国际标识:
2023-186U
轨道中心:
EARTH
卫星名称:
星链-30953
卫星全名:
星链-30953 (STARLINK-30953 )
卫星状态:
在轨 (已飞行698 天)
发射日期:
2023-12-03 UTC
国别 :
美国 (US)
星等 :
--
轨道信息
数据来源 国际轨道数据
星历时间: 2025-10-30T23:48:26+0800
21小时前
查看轨道信息
半长轴: 6861.176km
偏心率: 0.000119
轨道倾角: 43.004°
近地点辐角 269.277°
升交点赤经 281.846°
平近点角 90.795°
近地点: 482.224km
远地点: 483.858km
周期: 94.267分钟
每日圈数: 15.275836
详细信息
固有亮度:
5
最大亮度:
0.3
卫星平台:
Starlink v2.0 mini
覆盖范围:
全球
运营商:
太空探索技术公司
运营商所在国:
美国
制造商(研发单位):
太空探索技术公司
制造商所在国:
美国
使用方式:
暂无
卫星简介
星链(Starlink)计划是由太空探索技术公司(SpaceX)提出的一个巨型低轨卫星互联网星座项目,计划在2019年至2024年间在太空搭建由约1.2万颗卫星组成的“星链”网络,其中1584颗将部署在地球上空550千米处的近地轨道,并从2020年开始工作。该卫星仍在工作。
2D轨道图
3D轨道图
轨道高度分析图
轨道倾角分析图
轨道综合分析图
查看轨道综合分析图